Location: Taukkyan
(23.1052°N, 94.0030°E)
Time: 11:17:40
(UTC+00:00)

Meteor 2-5 Rocket - Pass Details

Date: 06 July 2020
Orbit: 833 x 912 km, 81.2° (Epoch: 14 August)

Event Time Altitude Azimuth Distance (km) Brightness Sun altitude
Rises 12:58:27 0° 192° (SSW) 3,442 6.7 -5.9°
Reaches altitude 10° 13:00:53 10° 195° (SSW) 2,518 6.0 -6.4°
Maximum altitude 13:06:34 67° 277° (W) 959 4.3 -7.6°
Drops below altitude 10° 13:12:25 10° 360° (N) 2,577 6.6 -8.7°
Sets 13:14:55 0° 3° (N) 3,527 7.3 -9.2°
